Vertical_Velocity
3 -2 3 -2 -5 -4 -2 1 3 -3 0 0 4 1 3 -0 -1 1 -3 -1 -1 78 -0 6 2 1 1 -4 -3 1 -2 1 -5 0 0 3 -1 -1 -2 -2 -2 -2 -1 -1 -2 -1 -4
-1 -1 -2 -1 -2 -4 -3 -3 4 1 -1 1 3 5 -3 -8 -2 3 2 -3 2 4 3 1 -6 1 -0 -5 -1 -4 -4 0 -1 -1 -2 -1 -4 -2 -3 -2 -2 -2 -3 -1 -1 1 -6
-1 1 -2 -3 2 2 -1 -4 -1 -1 1 -10 36 0 -1 3 1 2 7 -4 -6 6 7 -0 -4 -1 2 -4 -3 -1 -3 1 -2 -2 1 -0 0 -2 -1 -1 -2 -1 -5 1 -1 -3 -3
-1 -3 1 -6 -6 -2 1 1 -3 -2 -2 -2 -1 -4 -3 -4 -6 4 4 0 13 -3 -2 -3 -1 1 -1 -1 0 -2 -4 4 -8 -0 -1 -1 -0 -3 -2 -3 -2 -2 -1 -4 -1 -4 2
-4 -6 3 -7 -4 -3 3 2 -1 -2 -1 -4 -2 1 -4 -2 -6 5 16 9 -8 5 -10 -6 1 -2 -1 -1 -3 -2 -1 -2 0 0 -2 -0 -2 -4 -2 -2 -3 -4 -2 -4 -12 -6 -3
-3 -6 2 1 -13 -6 -4 5 7 3 0 2 1 -2 -4 3 -10 -0 4 10 1 0 -1 3 -1 -4 -1 -4 -1 5 -0 -1 -1 -3 -2 -2 -3 -1 -0 -2 -3 -3 -4 -6 -6 -2 3
-6 -1 -6 -0 -7 -7 -7 -2 -2 0 2 0 -1 -7 28 -14 41 -3 -7 4 -4 1 3 -2 -0 1 -1 -1 1 -2 -1 -1 -2 -4 -3 -2 -1 -4 -4 -4 -3 -3 -2 -5 6 -1 -9
-6 -6 -3 -8 2 -11 -4 -7 -6 9 -0 2 -1 -10 19 0 8 23 4 1 -1 -4 -8 1 -1 -2 -3 -1 2 -4 -2 -1 -4 -2 -2 -2 -4 -4 -3 -2 -1 0 -2 -1 -1 4 -3
1 -0 -6 -1 -5 2 -3 -6 -6 -2 5 5 2 -2 -3 -8 1 -1 4 -3 -2 -5 -9 0 1 1 4 -0 -4 2 -1 -3 -3 -3 -3 -2 -2 2 -1 -3 -2 0 -1 1 1 -2 -2
-2 -1 -2 -5 -3 -5 1 -9 -8 -3 -1 -4 3 -1 -3 -2 4 0 -7 -4 -4 1 -6 -5 -0 -0 -6 2 -4 -2 -1 -3 -3 -0 -1 -2 -4 -4 -3 -0 2 -3 -1 -2 -2 8 -1
-3 -2 -2 -4 -5 -5 -4 0 -1 -6 -6 2 2 3 -5 -0 2 -3 -6 1 -1 -0 -9 -1 -3 1 2 -7 1 3 -1 -2 -3 -2 -2 -1 -0 -1 1 2 -2 -5 1 3 5 5 9
-5 0 -1 0 -2 -6 -0 -3 -1 1 -0 -5 -5 -1 2 4 -2 -1 -0 -1 -1 -2 -7 -1 -1 -1 -3 0 -0 -3 -2 -3 -2 -3 -4 3 2 -1 1 1 -4 -2 2 -0 0 -1 1
0 -3 -3 -1 3 -1 -5 -1 -3 -1 -3 -2 -1 -4 -2 -3 -5 -5 -2 -3 0 -9 -1 -1 -1 -2 -5 -0 -2 -3 1 -1 -2 -3 -1 1 1 2 4 2 2 1 -1 -4 -6 -3 -6
-3 -3 4 -5 -4 6 3 -2 1 2 -1 -4 -3 -1 -6 -3 -2 -0 0 -1 -9 -1 1 -0 -2 -4 -2 -1 -4 -1 -2 1 3 -1 -3 -3 -7 -1 0 3 2 -2 0 2 -1 0 -3
-1 -1 1 1 -5 -9 -2 0 2 -2 -1 -0 1 -4 -2 -0 -0 -1 -0 -2 -3 -0 -2 -4 0 -1 0 -1 -3 -3 -1 -2 -1 -1 -1 -0 -1 0 4 2 1 -1 1 3 2 -0 0
-3 -2 2 -2 -1 -3 -3 -3 -1 2 -2 -1 -2 -1 -1 -1 -1 -2 -1 -6 -3 -2 -3 -1 -1 -1 -3 -3 -1 -1 -0 2 2 -1 -0 -0 -6 1 1 1 3 1 -4 0 2 -1 -1
-3 -3 -3 3 2 4 -2 -2 -2 0 1 -1 1 1 -3 1 -2 3 -5 -4 -1 1 1 3 -0 -3 -2 -2 -1 -2 -0 9 2 -3 0 0 1 -0 0 1 0 -5 6 2 3 -1 -0
2 -4 -2 -5 -4 1 2 -6 -5 -7 -7 1 -1 2 -0 -0 -2 -2 -1 -4 -2 0 3 -0 -1 2 1 -2 -0 -0 -1 -1 0 -2 3 -0 -4 -5 2 0 2 -1 -1 6 2 1 1
0 1 -3 -2 -3 -4 -5 5 2 -7 -6 -5 1 1 1 -3 -0 -3 -4 -1 -0 -3 -1 -0 1 1 1 -1 -2 -1 -1 2 -0 -0 -1 2 1 -2 -4 -4 1 1 4 2 1 4 -0
2 5 2 -6 -1 -3 -1 2 -1 1 3 -10 -8 -2 2 4 0 -1 -2 -2 -2 0 2 -2 -3 -2 -3 -2 0 -1 -1 2 -0 3 3 2 1 -0 -3 -1 -3 -5 0 2 -1 1 2
-1 1 6 -0 -2 -2 -1 -4 -0 -3 -6 0 -7 -5 -1 -2 1 3 -0 -3 -2 -1 -2 -2 1 1 -1 -0 1 -0 -0 1 0 -0 1 4 1 2 3 2 0 -1 -1 -0 -2 -1 -0
2 -3 2 6 5 -1 -2 -1 -1 5 1 -5 -3 1 -9 2 -1 0 1 -1 -1 -0 -2 -3 -4 -2 0 1 1 -2 -1 0 1 2 3 2 -1 -1 -5 0 -0 -5 1 -3 -1 -0 -4
-5 -2 -1 4 5 5 2 -1 -4 -2 1 -0 -2 -4 -1 -5 -0 6 3 1 0 2 2 -0 1 1 -0 -1 -2 -2 -1 -1 -2 -2 -1 -2 -2 -1 -4 -0 0 -2 -2 -1 -1 -2 -0
-4 -0 -2 -3 1 2 0 3 2 -1 1 -2 -4 -5 -6 -2 -3 -3 -3 -1 3 2 -1 0 1 -2 -3 1 1 1 1 -0 -2 2 0 -0 -0 -1 -6 -4 -6 -1 1 -0 -1 -0 -0
-5 1 1 -1 -5 2 1 -1 -3 1 1 0 -1 -1 -4 -2 -5 -1 -4 -3 -2 -1 -0 1 -2 -1 -1 -2 -5 -2 -2 -1 1 3 3 2 2 0 -0 -1 -9 0 -1 -2 -2 1 -1
-1 -1 -2 1 3 -1 0 0 -0 -3 -3 -3 3 1 -2 -4 3 -4 -3 -2 -3 0 -1 2 1 1 0 -1 -0 -3 -3 -2 -1 -3 -3 -0 0 -1 0 0 -2 -3 -3 -3 -2 -4 -0
4 -1 -3 0 3 0 1 2 2 2 -0 0 -5 -3 2 2 -2 -1 3 -3 -1 1 -2 -2 2 2 3 2 -0 1 1 1 -3 -3 -3 -1 -0 -2 2 -4 -9 -0 2 2 -2 -2 -3
3 -0 3 -3 -2 -0 4 -1 1 2 -2 -6 5 3 -2 -4 -2 -1 -7 -3 0 -0 5 -2 1 -1 1 0 2 -1 -1 -2 -2 1 1 -0 -2 -3 1 0 -9 -2 -3 -3 4 2 1
-1 -1 1 -0 -0 -1 1 2 -3 0 3 1 -0 -2 -2 -0 1 -3 1 1 -1 -3 -5 -1 -3 0 2 -0 -1 -1 -2 -2 1 -6 -1 -5 -1 -1 -8 -4 -3 -2 3 1 -3 -2 -1
Height
3033 3024 3017 3013 3007 3002 2999 3000 3000 3002 3004 3006 3009 3011 3015 3018 3020 3024 3033 3041 3050 3054 3061 3064 3069 3073 3076 3079 3081 3081 3081 3082 3082 3083 3083 3083 3083 3084 3084 3085 3086 3086 3086 3086 3085 3085 3085
3033 3025 3018 3012 3006 3003 3000 3000 3000 3002 3003 3005 3007 3011 3015 3017 3019 3024 3031 3039 3048 3055 3061 3065 3070 3073 3076 3078 3080 3080 3080 3081 3081 3081 3081 3082 3081 3082 3083 3085 3085 3084 3084 3084 3084 3083 3081
3034 3026 3020 3014 3008 3004 3001 3002 3001 3003 3005 3006 3000 3012 3016 3017 3019 3024 3030 3039 3047 3055 3061 3065 3070 3074 3075 3078 3079 3080 3080 3081 3079 3080 3080 3081 3081 3082 3082 3083 3082 3081 3081 3081 3081 3080 3078
3036 3029 3022 3018 3013 3008 3005 3003 3003 3005 3007 3009 3011 3014 3016 3018 3021 3026 3031 3038 3046 3055 3060 3066 3070 3074 3075 3077 3078 3079 3079 3079 3079 3080 3079 3080 3079 3080 3081 3081 3079 3080 3078 3076 3076 3075 3074
3042 3034 3027 3023 3019 3015 3012 3009 3008 3007 3010 3013 3014 3015 3016 3019 3024 3029 3034 3040 3047 3056 3062 3067 3071 3075 3076 3078 3078 3079 3078 3079 3079 3079 3079 3078 3078 3079 3078 3077 3078 3077 3075 3073 3071 3071 3068
3048 3041 3034 3029 3024 3023 3020 3018 3016 3015 3016 3016 3018 3018 3021 3023 3024 3031 3037 3043 3049 3058 3064 3070 3073 3077 3077 3078 3079 3079 3079 3079 3079 3077 3078 3077 3076 3076 3075 3075 3077 3075 3072 3069 3066 3067 3063
3054 3049 3043 3036 3032 3029 3028 3025 3025 3024 3022 3021 3023 3025 3017 3025 3027 3035 3041 3047 3057 3064 3068 3071 3073 3075 3076 3079 3080 3079 3079 3078 3077 3077 3077 3075 3075 3075 3075 3074 3074 3072 3069 3065 3063 3061 3055
3061 3057 3051 3045 3040 3036 3032 3030 3029 3028 3028 3028 3029 3031 3029 3032 3036 3041 3047 3054 3059 3066 3068 3072 3075 3078 3079 3080 3080 3079 3079 3079 3077 3075 3074 3075 3074 3075 3073 3072 3070 3068 3065 3063 3061 3060 3054
3071 3064 3058 3053 3047 3043 3041 3036 3035 3034 3034 3034 3036 3038 3039 3041 3045 3049 3054 3059 3064 3068 3071 3078 3079 3081 3081 3082 3080 3080 3079 3078 3076 3075 3074 3074 3075 3073 3072 3070 3067 3065 3063 3061 3058 3054 3049
3078 3073 3065 3060 3055 3050 3047 3045 3042 3040 3039 3040 3043 3044 3046 3049 3054 3055 3060 3064 3069 3071 3075 3084 3084 3084 3084 3082 3083 3081 3079 3080 3078 3077 3076 3076 3075 3073 3070 3067 3067 3063 3061 3059 3056 3054 3050
3086 3081 3075 3068 3064 3060 3056 3053 3052 3048 3047 3046 3048 3051 3054 3055 3058 3063 3066 3069 3072 3074 3079 3088 3086 3086 3084 3085 3085 3082 3082 3081 3080 3079 3078 3076 3072 3070 3068 3067 3065 3062 3058 3056 3052 3052 3050
3092 3089 3084 3078 3073 3069 3066 3063 3060 3059 3057 3056 3054 3056 3059 3063 3065 3068 3071 3074 3076 3078 3085 3088 3087 3087 3087 3086 3085 3086 3084 3082 3080 3077 3075 3073 3071 3069 3069 3066 3063 3059 3055 3052 3050 3050 3050
3099 3094 3091 3087 3082 3078 3074 3071 3069 3067 3067 3065 3064 3063 3064 3068 3071 3073 3075 3076 3077 3077 3088 3090 3089 3089 3088 3088 3089 3087 3085 3083 3082 3079 3075 3073 3071 3070 3068 3066 3063 3060 3055 3053 3053 3050 3048
3105 3100 3096 3094 3090 3086 3083 3079 3076 3074 3072 3072 3072 3071 3071 3071 3073 3075 3076 3078 3077 3084 3085 3089 3090 3091 3090 3090 3090 3088 3086 3084 3083 3082 3078 3076 3072 3071 3069 3068 3064 3060 3059 3057 3059 3050 3046
3108 3105 3101 3098 3096 3094 3090 3087 3083 3080 3077 3077 3077 3076 3076 3078 3079 3079 3080 3079 3083 3086 3089 3090 3091 3092 3092 3092 3090 3088 3086 3085 3085 3084 3083 3079 3073 3071 3069 3067 3065 3060 3060 3057 3054 3050 3047
3111 3109 3106 3102 3100 3099 3096 3092 3089 3086 3084 3082 3082 3082 3082 3082 3082 3082 3083 3081 3086 3088 3091 3092 3092 3093 3093 3092 3091 3088 3086 3086 3085 3084 3083 3081 3075 3071 3071 3068 3067 3063 3062 3058 3055 3052 3049
3115 3112 3110 3106 3104 3102 3101 3098 3094 3091 3089 3088 3086 3086 3085 3084 3085 3085 3086 3086 3088 3090 3091 3093 3093 3093 3093 3092 3090 3088 3087 3087 3085 3084 3083 3081 3079 3074 3071 3069 3068 3065 3061 3058 3056 3055 3055
3119 3115 3112 3109 3105 3103 3102 3101 3098 3096 3094 3092 3090 3089 3089 3089 3091 3090 3090 3089 3090 3091 3092 3093 3093 3093 3092 3092 3090 3089 3087 3086 3085 3084 3083 3081 3078 3073 3071 3069 3068 3065 3061 3058 3058 3058 3055
3120 3118 3113 3111 3108 3105 3103 3102 3101 3100 3097 3095 3094 3092 3092 3092 3093 3093 3093 3092 3093 3093 3093 3094 3094 3094 3093 3092 3091 3088 3087 3087 3084 3083 3082 3081 3078 3074 3070 3071 3068 3064 3062 3059 3057 3058 3055
3120 3119 3115 3113 3110 3107 3104 3103 3102 3101 3100 3100 3097 3096 3095 3095 3095 3096 3094 3095 3094 3094 3094 3094 3094 3094 3093 3092 3090 3088 3087 3086 3084 3082 3081 3080 3077 3075 3073 3070 3068 3063 3061 3059 3057 3057 3054
3119 3117 3115 3113 3112 3109 3106 3103 3102 3101 3100 3101 3100 3100 3098 3098 3096 3096 3097 3096 3095 3095 3095 3094 3094 3093 3092 3091 3089 3088 3086 3085 3084 3082 3080 3079 3075 3072 3071 3068 3065 3063 3061 3059 3057 3055 3054
3119 3116 3113 3111 3110 3109 3107 3104 3102 3100 3099 3100 3100 3100 3099 3097 3097 3096 3096 3096 3095 3095 3095 3094 3094 3093 3091 3090 3089 3087 3086 3084 3083 3082 3080 3078 3075 3071 3066 3064 3063 3059 3059 3058 3056 3054 3052
3116 3115 3112 3108 3107 3105 3105 3103 3100 3100 3098 3098 3099 3097 3097 3095 3096 3096 3096 3096 3095 3094 3094 3093 3093 3092 3091 3090 3088 3087 3085 3083 3082 3081 3079 3078 3075 3072 3064 3062 3059 3056 3054 3054 3053 3052 3051
3114 3111 3111 3107 3105 3103 3101 3100 3099 3097 3098 3096 3096 3096 3094 3094 3095 3095 3095 3095 3095 3094 3094 3093 3091 3090 3090 3087 3086 3084 3082 3080 3079 3078 3077 3076 3074 3072 3065 3061 3060 3054 3052 3052 3051 3049 3048
3110 3107 3106 3106 3101 3100 3098 3097 3095 3094 3094 3095 3093 3093 3093 3091 3091 3092 3091 3091 3091 3090 3090 3090 3089 3089 3087 3086 3084 3081 3079 3078 3075 3074 3073 3073 3072 3070 3066 3062 3055 3049 3049 3049 3048 3048 3045
3105 3106 3101 3102 3102 3099 3095 3093 3092 3091 3090 3090 3090 3090 3090 3090 3088 3088 3088 3088 3087 3086 3085 3085 3085 3084 3083 3083 3082 3080 3078 3076 3074 3072 3071 3070 3069 3070 3066 3064 3054 3047 3047 3047 3046 3043 3042
3099 3101 3099 3096 3096 3095 3093 3090 3087 3086 3086 3086 3086 3087 3086 3086 3086 3085 3084 3083 3083 3083 3083 3083 3083 3082 3081 3079 3078 3077 3074 3073 3071 3069 3067 3066 3064 3063 3063 3061 3048 3045 3044 3044 3046 3047 3041
3092 3093 3095 3094 3092 3090 3089 3087 3085 3082 3081 3081 3081 3081 3083 3083 3083 3081 3081 3080 3079 3079 3078 3079 3080 3078 3077 3077 3076 3074 3071 3070 3067 3064 3062 3062 3061 3058 3058 3057 3047 3043 3043 3045 3043 3040 3038
3086 3085 3088 3088 3088 3088 3085 3082 3080 3077 3076 3076 3076 3075 3076 3077 3079 3077 3076 3075 3073 3074 3074 3074 3075 3073 3073 3073 3072 3071 3069 3067 3064 3062 3059 3058 3055 3053 3052 3044 3042 3041 3041 3039 3037 3037 3036